This is the latest recevied weather packets stored in our database for station/object SV9TNF-55. If no packets are shown the sender has not sent any weather packets the latest 10 day(s).
| Time | Temp. | Humidity | Pressure | Rain* | Wind** | Luminosity | Snow |
|---|---|---|---|---|---|---|---|
| 1787918194 | 26.11° C | 43% | 1014.6 hPa | 0 mm | 4.47 m/s, 315° | - | - |
| 1787917586 | 26.11° C | 44% | 1014.9 hPa | 0 mm | 5.81 m/s, 315° | - | - |
| 1787916987 | 26.11° C | 44% | 1014.9 hPa | 0 mm | 5.81 m/s, 315° | - | - |
| 1787916386 | 26.11° C | 44% | 1014.9 hPa | 0 mm | 5.81 m/s, 292° | - | - |
| 1787915786 | 26.67° C | 43% | 1014.9 hPa | 0 mm | 4.92 m/s, 315° | - | - |
| 1787915186 | 26.11° C | 42% | 1014.9 hPa | 0 mm | 4.02 m/s, 315° | - | - |
| 1787914586 | 26.11° C | 41% | 1015 hPa | 0 mm | 4.92 m/s, 315° | - | - |
| 1787913986 | 26.11° C | 42% | 1014.9 hPa | 0 mm | 3.13 m/s, 270° | - | - |
| 1787913386 | 26.11° C | 41% | 1015 hPa | 0 mm | 4.02 m/s, 292° | - | - |
| 1787912786 | 26.11° C | 43% | 1015 hPa | 0 mm | 4.92 m/s, 292° | - | - |
| 1787912186 | 26.11° C | 43% | 1015 hPa | 0 mm | 4.02 m/s, 315° | - | - |
| 1787911585 | 26.11° C | 43% | 1015.1 hPa | 0 mm | 4.02 m/s, 315° | - | - |
| 1787910987 | 26.67° C | 43% | 1015.2 hPa | 0 mm | 3.58 m/s, 292° | - | - |
| 1787910386 | 26.11° C | 44% | 1015.2 hPa | 0 mm | 3.13 m/s, 292° | - | - |
| 1787909785 | 25.56° C | 43% | 1015.1 hPa | 0 mm | 2.68 m/s, 337° | - | - |
| 1787909186 | 25.56° C | 43% | 1015 hPa | 0 mm | 3.13 m/s, 292° | - | - |
| 1787908585 | 25.56° C | 44% | 1015 hPa | 0 mm | 2.24 m/s, 270° | - | - |
| 1787907985 | 25.56° C | 46% | 1015 hPa | 0 mm | 2.24 m/s, 315° | - | - |
| 1787907385 | 25.56° C | 46% | 1015 hPa | 0 mm | 2.68 m/s, 315° | - | - |
| 1787906785 | 25° C | 46% | 1015 hPa | 0 mm | 2.24 m/s, 315° | - | - |
| 1787906185 | 25° C | 45% | 1015 hPa | 0 mm | 3.58 m/s, 292° | - | - |
| 1787905585 | 25° C | 46% | 1014.9 hPa | 0 mm | 4.02 m/s, 292° | - | - |
| 1787904985 | 24.44° C | 46% | 1014.8 hPa | 0 mm | 3.58 m/s, 292° | - | - |
| 1787904385 | 24.44° C | 46% | 1014.8 hPa | 0 mm | 4.92 m/s, 270° | - | - |
| 1787903786 | 24.44° C | 46% | 1014.9 hPa | 0 mm | 2.68 m/s, 270° | - | - |
* Rain latest hour (hover to see other rain measurements)
** Current wind speed in m/s (hover to see current wind gust speed)